ASTRA 1L

Last updated on Sun Nov 16 2025 00:03:40 GMT+0000 (Coordinated Universal Time)

1 31306U 07016A 25319.31325439 .00000127 00000+0 00000+0 0 9995 2 31306 0.7679 82.7200 0003548 158.9080 305.2114 1.00269638 42843
UTC large
Height (km)
Speed (km/s)
/
Latitude / Longitude
Inclination (degrees)
Orbital Period (minutes)
Azimuth
Elevation
Range (km)
Doppler Factor

Next 0 passes for location: London (51.5072 / 0.1276)

Sorry there are no passes over London.